This is the latest recevied weather packets stored in our database for station/object N5XL. If no packets are shown the sender has not sent any weather packets the latest 10 day(s).
| Time | Temp. | Humidity | Pressure | Rain* | Wind** | Luminosity | Snow |
|---|---|---|---|---|---|---|---|
| 1777789623 | 25° C | 26% | 1011.1 hPa | 0 mm | - | 0 W/m² | - |
| 1777783503 | 28.33° C | 18% | 1010.6 hPa | 0 mm | - | 0 W/m² | - |
| 1777782963 | 28.33° C | 18% | 1010.5 hPa | 0 mm | - | 0 W/m² | - |
| 1777781344 | 28.33° C | 17% | 1010.2 hPa | 0 mm | - | 0 W/m² | - |
| 1777779904 | 28.89° C | 17% | 1009.8 hPa | 0 mm | - | 0 W/m² | - |
| 1777778823 | 29.44° C | 17% | 1009.8 hPa | 0 mm | - | 0 W/m² | - |
| 1777778283 | 29.44° C | 17% | 1009.6 hPa | 0 mm | - | 0 W/m² | - |
| 1777776843 | 30° C | 16% | 1009.5 hPa | 0 mm | - | 0 W/m² | - |
| 1777775244 | 30.56° C | 16% | 1009.4 hPa | 0 mm | - | 0 W/m² | - |
| 1777766403 | 33.33° C | 14% | 1009.8 hPa | 0 mm | - | 221 W/m² | - |
| 1777763343 | 33.89° C | 14% | 1010.1 hPa | 0 mm | - | 291 W/m² | - |
| 1777762804 | 33.89° C | 14% | 1010 hPa | 0 mm | - | 437 W/m² | - |
| 1777760823 | 34.44° C | 13% | 1010.7 hPa | 0 mm | - | 441 W/m² | - |
| 1777756165 | 34.44° C | 15% | 1011.7 hPa | 0 mm | - | 815 W/m² | - |
| 1777754164 | 33.89° C | 14% | 1012 hPa | 0 mm | - | 878 W/m² | - |
| 1777753084 | 33.89° C | 15% | 1012.3 hPa | 0 mm | - | 906 W/m² | - |
| 1777748943 | 31.67° C | 18% | 1013.2 hPa | 0 mm | - | 857 W/m² | - |
| 1777748043 | 31.11° C | 17% | 1013.7 hPa | 0 mm | - | 847 W/m² | - |
| 1777746963 | 32.78° C | 19% | 1013.8 hPa | 0 mm | - | 834 W/m² | - |
| 1777742844 | 31.11° C | 21% | 1014.5 hPa | 0 mm | - | 729 W/m² | - |
| 1777741204 | 30.56° C | 22% | 1014.5 hPa | 0 mm | - | 661 W/m² | - |
| 1777736165 | 26.67° C | 28% | 1014.3 hPa | 0 mm | - | 415 W/m² | - |
| 1777731483 | 22.78° C | 37% | 1013.6 hPa | 0 mm | - | 135 W/m² | - |
| 1777725363 | 20° C | 29% | 1012.5 hPa | 0 mm | - | 2 W/m² | - |
| 1777717623 | 19.44° C | 29% | 1011.7 hPa | 0 mm | - | 0 W/m² | - |
* Rain latest hour (hover to see other rain measurements)
** Current wind speed in m/s (hover to see current wind gust speed)